Tracking 18980 objects as of 18-Feb-2018
HD Live streaming from Space Station
objects crossing your sky now

NOAA 16 DEB

Track NOAA 16 DEB now!
10-day predictions


NORAD ID: 41247
Int'l Code: 2000-055EX
Perigee: 771.8 km
Apogee: 870.1 km
Inclination: 98.9 °
Period: 101.2 minutes
Semi major axis: 7191 km
RCS: Unknown
Launch date: September 21, 2000
Source: United States (US)
Launch site: AIR FORCE WESTERN TEST RANGE (AFWTR)

Note: This is SATELLITE DEBRIS
aabbcc
Your satellite tracking list
Your tracking list is empty




NASA's NSSDC Master Catalog

Two Line Element Set (TLE):
1 41247U 00055EX  18047.01708315 +.00001616 +00000-0 +71459-3 0  9996
2 41247 098.9075 136.6990 0068353 339.6676 020.1783 14.23430059110427
Source of the keplerian elements: AFSPC